[TLELIST] Archives

 

[list_settings.list_name] Current TLEs

December 13th 2021 PST

HST 1 20580U 90037B 21347.25127806 .00000632 00000-0 27092-4 0 9997 2 20580 28.4712 321.8496 0002668 184.0201 196.0997 15.09874452538307 ISS (ZARYA) 1 25544U 98067A 21347.34681480 .00000604 00000-0 19153-4 0 9994 2 25544 51.6420 176.8363 0004152 305.4744 113.2790 15.48959522316365 CXO 1 25867U 99040B 21347.93111846 .00000306 00000-0 00000+0 0 9998 2 25867 50.5447 246.9740 8589916 228.4281 359.6965 0.37803426 22257 ____________________________________________________________________ These 2-Line ...Continue Reading

[list_settings.list_name] Current TLEs

December 12th 2021 PST

HST 1 20580U 90037B 21345.69113313 .00000655 00000-0 28474-4 0 9991 2 20580 28.4713 332.1758 0002737 167.5157 355.5514 15.09873146537807 ISS (ZARYA) 1 25544U 98067A 21346.44497459 .00000757 00000-0 21943-4 0 9994 2 25544 51.6419 181.2981 0004154 302.4533 124.0937 15.48958032316227 CXO 1 25867U 99040B 21345.28700052 .00000398 00000-0 00000-0 0 9999 2 25867 50.5917 247.0816 8583449 228.3984 359.7548 0.37804456 11091 ____________________________________________________________________ These 2-Line ...Continue Reading

[list_settings.list_name] Current TLEs

December 11th 2021 PST

HST 1 20580U 90037B 21344.69959980 .00000683 00000-0 30167-4 0 9991 2 20580 28.4713 338.7385 0002775 157.1285 5.7315 15.09872265537651 ISS (ZARYA) 1 25544U 98067A 21344.71242282 .00001445 00000-0 34444-4 0 9999 2 25544 51.6418 189.8678 0004128 294.3300 184.7182 15.48956096315957 CXO 1 25867U 99040B 21345.28700052 .00000398 00000-0 00000-0 0 9999 2 25867 50.5917 247.0816 8583449 228.3984 359.7548 0.37804456 11091 ____________________________________________________________________ These 2-Line ...Continue Reading

[list_settings.list_name] Current TLEs

December 10th 2021 PST

HST 1 20580U 90037B 21343.70814690 .00000706 00000-0 31536-4 0 9997 2 20580 28.4714 345.3006 0002813 146.8297 16.2644 15.09871269537506 ISS (ZARYA) 1 25544U 98067A 21343.88482639 .00000143 00000-0 10791-4 0 9991 2 25544 51.6415 193.9729 0004414 287.4837 253.6360 15.48949833315824 CXO 1 25867U 99040B 21342.64417348 .00000505 00000-0 00000-0 0 9999 2 25867 50.6312 247.1844 8578782 228.3791 359.9328 0.37808223 11097 ____________________________________________________________________ These 2-Line ...Continue Reading

[list_settings.list_name] Current TLEs

December 9th 2021 PST

HST 1 20580U 90037B 21343.23148221 .00000745 00000-0 33925-4 0 9992 2 20580 28.4714 348.4555 0002840 142.1225 304.9064 15.09870908537691 ISS (ZARYA) 1 25544U 98067A 21343.41105832 .00001026 00000-0 26844-4 0 9994 2 25544 51.6429 196.3067 0004267 290.0753 127.4657 15.48949375315754 CXO 1 25867U 99040B 21342.64417348 .00000505 00000-0 00000-0 0 9999 2 25867 50.6312 247.1844 8578782 228.3791 359.9328 0.37808223 11097 ____________________________________________________________________ These 2-Line ...Continue Reading

[list_settings.list_name] Current TLEs

December 8th 2021 PST

HST 1 20580U 90037B 21341.79123744 .00000788 00000-0 36491-4 0 9992 2 20580 28.4715 357.9880 0002883 127.4678 35.5411 15.09869247537487 ISS (ZARYA) 1 25544U 98067A 21342.44345981 .00002260 00000-0 49253-4 0 9997 2 25544 51.6435 201.0889 0004057 285.2225 133.2293 15.48949302315609 CXO 1 25867U 99040B 21342.64417348 .00000505 00000-0 00000-0 0 9999 2 25867 50.6312 247.1844 8578782 228.3791 359.9328 0.37808223 11097 ____________________________________________________________________ These 2-Line ...Continue Reading

[list_settings.list_name] Current TLEs

December 7th 2021 PST

HST 1 20580U 90037B 21340.79969618 .00000845 00000-0 39928-4 0 9991 2 20580 28.4714 4.5506 0002905 117.5243 45.2478 15.09868054537069 ISS (ZARYA) 1 25544U 98067A 21341.36710411 .00002595 00000-0 55357-4 0 9994 2 25544 51.6433 206.4142 0004124 281.1247 251.3870 15.48944880315432 CXO 1 25867U 99040B 21342.64417348 .00000505 00000-0 00000-0 0 9999 2 25867 50.6312 247.1844 8578782 228.3791 359.9328 0.37808223 11097 ____________________________________________________________________ These 2-Line ...Continue Reading

[list_settings.list_name] Current TLEs

December 6th 2021 PST

HST 1 20580U 90037B 21339.80829459 .00000917 00000-0 44288-4 0 9994 2 20580 28.4714 11.1123 0002920 107.6063 55.6940 15.09866843536911 ISS (ZARYA) 1 25544U 98067A 21340.39932169 .00004577 00000-0 91351-4 0 9998 2 25544 51.6435 211.2046 0003988 277.6071 254.8235 15.48946544315288 CXO 1 25867U 99040B 21342.64417348 .00000505 00000-0 00000-0 0 9999 2 25867 50.6312 247.1844 8578782 228.3791 359.9328 0.37808223 11097 ____________________________________________________________________ These 2-Line ...Continue Reading

[list_settings.list_name] Current TLEs

December 5th 2021 PST

HST 1 20580U 90037B 21338.81674597 .00000978 00000-0 47948-4 0 9998 2 20580 28.4714 17.6750 0002930 97.7714 65.2617 15.09865506536767 ISS (ZARYA) 1 25544U 98067A 21339.43187394 .00003128 00000-0 65063-4 0 9995 2 25544 51.6429 215.9885 0004097 274.3592 259.8366 15.48933952315130 CXO 1 25867U 99040B 21340.00100795 .00000543 00000-0 00000-0 0 9994 2 25867 50.7213 247.3430 8574632 228.3305 0.0482 0.37806484 11083 ____________________________________________________________________ These 2-Line ...Continue Reading

[list_settings.list_name] Current TLEs

December 4th 2021 PST

HST 1 20580U 90037B 21337.55238029 .00000995 00000-0 48991-4 0 9992 2 20580 28.4713 26.0433 0002932 85.3351 31.5951 15.09863361536573 ISS (ZARYA) 1 25544U 98067A 21338.19464374 .00020386 00000-0 37799-3 0 9992 2 25544 51.6430 222.1110 0004209 274.4073 196.2591 15.48937579314944 CXO 1 25867U 99040B 21340.00100795 .00000543 00000-0 00000-0 0 9994 2 25867 50.7213 247.3430 8574632 228.3305 0.0482 0.37806484 11083 ____________________________________________________________________ These 2-Line ...Continue Reading
  • This mailing list is a public mailing list - anyone may join or leave, at any time.
  • This mailing list is announce-only.

International Space Station (ISS) / Hubble Space Telescope (HST) / Chandra X-Ray Observatory Orbital Data via EMAIL

Privacy Policy:

Private list